Weather observations for the past three days for
Corvallis, Corvallis Municipal Airport
Imperial (Metric)
Date Time (pdt) Wind (mph) Vis. (mi.) Weather Sky Cond. Temperature (ºF) Relative Humidity Wind Chill (°F) Heat Index (°F) Pressure Precipitation (in)
Air Dwpt 6 hour altimeter (in) sea level (mb) 1 hr 3 hr 6 hr
Max. Min.
18 11:56 Vrbl 3 10.00 Fair CLR 72 55 55% 30.11 1019.6
18 10:56 Calm 10.00 Fair CLR 68 55 69.1 46 63% 30.12 1019.9
18 09:56 Calm 10.00 A Few Clouds FEW018 64 54 70% 30.13 1020.2
18 08:56 Vrbl 5 10.00 Mostly Cloudy BKN014 62.1 54 75% 30.13 1020.4
18 07:56 Vrbl 3 10.00 A Few Clouds FEW014 57.9 53.1 84% 30.13 1020.3
18 06:56 S 5 10.00 A Few Clouds FEW014 52 50 93% 30.12 1020.0
18 05:56 S 5 10.00 Fair CLR 46.9 45 93% 45 30.11 1019.8
18 04:56 S 3 10.00 Fair CLR 46.9 45 57.9 46.9 93% 30.11 1019.7
18 03:56 SW 5 10.00 Fair CLR 52 48.9 89% 30.1 1019.1
18 02:56 NW 8 10.00 Fair CLR 55 51.1 87% 30.1 1019.1
18 01:56 NW 8 10.00 Fair CLR 55 51.1 87% 30.09 1018.7
18 00:56 NW 9 10.00 Fair CLR 55.9 51.1 84% 30.08 1018.5
17 23:56 NW 14 10.00 Fair CLR 57 51.1 81% 30.07 1018.4
17 22:56 NW 10 10.00 Fair CLR 57.9 51.1 80.1 57.9 78% 30.07 1018.3
17 21:56 NW 15 10.00 Fair CLR 60.1 51.1 72% 30.06 1017.8
17 20:56 NW 17 G 25 10.00 Fair CLR 62.1 51.1 67% 30.03 1017.0
17 19:56 NW 17 10.00 Fair CLR 68 53.1 59% 30.03 1016.8
17 18:56 NW 16 10.00 Fair CLR 73 54 51% 30.03 1016.8
17 17:56 NW 14 G 22 10.00 Fair CLR 75.9 55.9 50% 78 30.02 1016.3
17 16:56 NW 14 10.00 Fair CLR 80.1 57 82 66.9 45% 80 30.01 1016.2
17 15:56 NW 12 10.00 Fair CLR 81 57 44% 81 30.02 1016.4
17 14:56 NW 10 10.00 Fair CLR 81 57 44% 81 30.02 1016.6
17 13:56 Vrbl 5 4.00 A Few Clouds with Haze FEW004 78.1 55 45% 79 30.03 1016.8
17 12:56 Vrbl 3 10.00 Fair CLR 75 54 48% 78 30.04 1017.1
17 11:56 Calm 10.00 Fair CLR 71.1 54 55% 30.04 1017.4
17 10:56 Calm 10.00 Fair CLR 68 54 68 53.1 61% 30.05 1017.5
17 09:56 Calm 10.00 Fair CLR 64 53.1 68% 30.05 1017.7
17 08:56 Calm 10.00 Partly Cloudy SCT015 60.1 52 75% 30.05 1017.7
17 07:56 Vrbl 3 10.00 Fair CLR 57.9 52 81% 30.05 1017.4
17 06:56 S 5 10.00 Fair CLR 55 52 90% 30.03 1017.0
17 05:56 S 5 10.00 Partly Cloudy SCT011 55 51.1 87% 30.03 1016.8
17 04:56 Vrbl 3 10.00 A Few Clouds FEW013 55 51.1 60.1 55 87% 30.02 1016.2
17 03:56 NW 3 10.00 Fair CLR 55.9 51.1 84% 30.01 1016.1
17 02:56 W 7 10.00 Fair CLR 55.9 52 87% 29.99 1015.6
17 01:56 NW 8 10.00 Fair CLR 57 52 83% 30 1015.7
17 00:56 NW 15 10.00 Fair CLR 57.9 52 81% 29.97 1014.9
16 23:56 NW 9 10.00 A Few Clouds FEW110 57.9 52 81% 29.98 0.0
16 22:56 Calm 10.00 Fair CLR 60.1 53.1 98.1 59 78% 29.96 0.0
16 21:56 NW 13 10.00 Thunderstorm in Vicinity Light Rain CLR 61 53.1 75% 29.96 0.0
16 20:56 NW 15 10.00 Fair CLR 63 51.1 65% 29.94 0.0
16 19:56 NW 23 G 35 10.00 Fair and Breezy CLR 69.1 52 55% 29.85 0.0
16 18:56 NW 25 G 32 10.00 Fair and Breezy CLR 75.9 55 48% 78 29.85 0.0
16 17:56 NW 17 10.00 Fair CLR 84.9 59 42% 85 29.83 0.0
16 16:56 NE 13 10.00 Fair CLR 98.1 50 20% 95 29.83 0.0
16 15:56 N 10 10.00 Fair CLR 97 51.1 21% 94 29.85 0.0
16 14:56 E 8 10.00 Fair CLR 95 55.9 27% 93 29.88 0.0
16 13:56 Vrbl 6 6.00 Fair with Haze CLR 93 57 30% 92 29.9 0.0
16 12:56 Vrbl 6 10.00 Fair CLR 89.1 59 36% 88 29.93 0.0
16 11:56 N 12 10.00 Fair CLR 84 60.1 44% 84 29.95 1014.0
16 10:56 NE 7 10.00 Fair CLR 81 60.1 81 54 49% 82 29.97 1014.6
16 09:56 NE 7 10.00 Fair CLR 75.9 59 56% 78 29.98 1015.1
16 08:56 NE 3 10.00 Fair CLR 71.1 59 66% 29.99 1015.4
16 07:56 Calm 10.00 Fair CLR 66 57.9 75% 29.99 1015.6
16 06:56 Calm 10.00 Fair CLR 59 55.9 90% 29.99 1015.5
16 05:56 W 3 10.00 Fair CLR 54 52 93% 29.99 1015.5
16 04:56 Calm 10.00 Fair CLR 55 51.1 69.1 55 87% 29.99 1015.3
16 03:56 N 5 10.00 Fair CLR 59 55 87% 29.97 1014.9
16 02:56 Calm 10.00 Fair CLR 63 55.9 78% 29.98 1015.0
16 01:56 NW 5 10.00 Fair CLR 63 55.9 78% 29.97 1014.9
16 00:56 NW 6 10.00 Fair CLR 63 55.9 78% 29.99 1015.3
15 23:56 NW 3 10.00 Fair CLR 66.9 57 71% 29.99 1015.3
15 22:56 NW 7 10.00 Fair CLR 69.1 57 90 68 66% 29.98 1015.2
15 21:56 NW 5 10.00 Fair CLR 73 57 57% 29.99 1015.3
15 20:56 N 5 10.00 Fair CLR 78.1 55 45% 79 29.97 1014.9
15 19:56 NE 9 10.00 Fair CLR 86 54 33% 84 29.96 1014.6
15 18:56 NE 13 10.00 Fair CLR 88 51.1 28% 85 29.96 1014.6
15 17:56 NE 14 10.00 Fair CLR 90 48 24% 87 29.97 1014.8
15 16:56 NE 13 G 18 10.00 Fair CLR 90 48 91 77 24% 87 29.99 1015.4
15 15:56 NE 14 10.00 Fair CLR 89.1 48.9 25% 86 30.01 1016.2
15 14:56 NE 14 10.00 Fair CLR 89.1 51.1 27% 86 30.04 1017.1
15 13:56 NE 12 G 17 10.00 Fair CLR 86 51.1 30% 84 30.06 1017.8
15 12:56 NE 10 G 16 10.00 Fair CLR 82.9 50 32% 81 30.08 1018.5
Date Time (pdt) Wind (mph) Vis. (mi.) Weather Sky Cond. Air Dwpt Max. Min. Relative Humidity Wind Chill (°F) Heat Index (°F) altimeter (in) sea level (mb) 1 hr 3 hr 6 hr
6 hour
Temperature (ºF) Pressure Precipitation (in)